Regional Weather Roundup
Issued by NWS Kansas City/Pleasant Hill, MO

Home | Current Version | Previous Version | Graphics & Text | Print | Product List | Glossary Off
Versions: 1 2 3 4 5 6 7 8 9 10 11 12 13 14 15 16 17 18 19 20 21 22 23 24 25 26 27 28 29 30 31 32 33 34 35 36 37 38 39 40 41 42 43 44 45 46 47 48 49 50

338
ASUS43 KEAX 302310
RWREAX

WEATHER ROUNDUP FOR EASTERN KANSAS AND NORTHWEST MISSOURI
NATIONAL WEATHER SERVICE KANSAS CITY/PLEASANT HILL MO
600 PM CDT MON MAY 30 2016

KSZ040-057-103>105-MOZ028-029-037-043-310000-
...KANSAS CITY METROPOLITAN AREA...

CITY           SKY/WX    TMP DP  RH WIND       PRES   REMARKS
K.C. INTL      CLOUDY    76  65  68 S15       29.95F
K.C. DOWNTOWN  CLOUDY    77  61  57 S18       29.96F
LEES SUMMIT    CLOUDY    73  60  63 S13       29.99F
OLATHE - IXD   CLOUDY    75  65  70 SE10      29.97F
OLATHE - OJC   CLOUDY    71  62  73 S13       29.97F
LAWRENCE       PTSUNNY   80  62  54 S15       29.94F

$$

MOZ001>008-011>017-020>025-030>033-038>040-044>046-053-054-310000-
...NORTHERN AND CENTRAL MISSOURI...

CITY           SKY/WX    TMP DP  RH WIND       PRES   REMARKS
ST. JOSEPH     LGT RAIN  75  65  70 SE15      29.94S
MOSBY          CLOUDY    73  61  64 S10G16    29.98F
WARRENSBURG    DRIZZLE   64  61  88 SE13      29.98F
WHITEMAN AFB   CLOUDY    64  64 100 SW17      29.97F
CLINTON        CLOUDY    64  63  94 CALM      30.02F
SEDALIA        CLOUDY    67  63  87 S6        30.01F
WARSAW         NOT AVBL
CHILLICOTHE      N/A     77  63  61 S20G30    29.98R
KIRKSVILLE     CLOUDY    79  68  69 S6        29.97F

$$

MOZ041-047>049-056>058-063>065-088>090-097-310000-
...EASTERN AND SOUTHERN MISSOURI...

CITY           SKY/WX    TMP DP  RH WIND       PRES   REMARKS
ST. LOUIS INTL CLOUDY    79  55  43 SW8       30.01R
SPIRIT OF STL  TSTM      69  62  78 SW5       30.00F FOG
COLUMBIA       CLOUDY    73  62  68 W17       30.01R
JEFFERSON CITY CLOUDY    72  60  66 W9        30.02R
ROLLA          TSTM      70  63  78 W17G25    30.01R
SPRINGFIELD    CLOUDY    71  59  65 NE12      30.02F
BRANSON        LGT RAIN  68  66  94 CALM      30.06R
JOPLIN         LGT RAIN  69  67  93 VRB6      30.02S
WEST PLAINS    LGT RAIN  66  63  90 NE6       30.05F

$$

IAZ060-094-KSZ022-034>040-054-083-096-NEZ052-066-093-310000-
...KANSAS...SOUTHEAST NEBRASKA AND IOWA...

CITY           SKY/WX    TMP DP  RH WIND       PRES   REMARKS
TOPEKA         MOSUNNY   80  60  50 SE18G24   29.92F
MANHATTAN      SUNNY     83  61  47 S14       29.89F
EMPORIA        SUNNY     78  59  51 S16       29.94F
CHANUTE        MOSUNNY   76  60  57 SE15      29.97F
WICHITA        MOSUNNY   81  61  50 S13       29.91F
OMAHA          TSTM      76  61  59 S10       29.88R
LINCOLN        MOSUNNY   85  59  41 S16G23    29.85F
FALLS CITY     TSTM      79  61  53 S21G33    29.88S
LAMONI         CLOUDY    78  64  61 S13       29.93R
DES MOINES     PTSUNNY   86  58  38 S15       29.89F

$$





USA.gov is the U.S. government's official web portal to all federal, state and local government web resources and services.